Location: Navalespino
(40.5894°N, 4.2660°W)
Time: 12:47:42
(UTC+00:00)

Cosmos 2263 Rocket - Pass Details

Date: 18 April 2024
Orbit: 824 x 847 km, 71.0° (Epoch: 23 May)

Event Time Altitude Azimuth Distance (km) Brightness Sun altitude
Rises 22:41:30 0° 338° (NNW) 3,387 6.4 -33.7°
Reaches altitude 10° 22:43:57 10° 340° (NNW) 2,446 5.4 -33.9°
Enters shadow 22:47:37 42° 350° (N) 1,176 3.2 -34.2°
